Date,TemperatureHighF,TemperatureAvgF,TemperatureLowF,DewpointHighF,DewpointAvgF,DewpointLowF,HumidityHigh,HumidityAvg,HumidityLow,PressureMaxIn,PressureMinIn,WindSpeedMaxMPH,WindSpeedAvgMPH,GustSpeedMaxMPH,PrecipitationSumIn
2013-1-1,11,5,-2,-100,-100,-100,0,0,100,0.00,40.00,0,-999,0,0.00
2013-1-2,13,7,1,-100,-100,-100,0,0,100,0.00,40.00,0,-999,0,0.00
2013-1-3,19,11,1,-100,-100,-100,0,0,100,0.00,40.00,0,-999,0,0.00
2013-1-4,32,19,13,-100,-100,-100,0,0,100,0.00,40.00,0,-999,0,0.01
2013-1-5,32,24,15,-100,-100,-100,0,0,100,0.00,40.00,0,-999,0,0.00
2013-1-6,40,25,12,-100,-100,-100,0,0,100,0.00,40.00,0,-999,0,0.00
2013-1-7,36,28,18,-100,-100,-100,0,0,100,0.00,40.00,0,-999,0,0.00
2013-1-8,33,27,19,-100,-100,-100,0,0,100,0.00,40.00,0,-999,0,0.00
2013-1-9,41,30,21,-100,-100,-100,0,0,100,0.00,40.00,0,-999,0,0.00
2013-1-10,39,30,22,-100,-100,-100,0,0,100,0.00,40.00,0,-999,0,0.00
2013-1-11,24,15,2,-100,-100,-100,0,0,100,0.00,40.00,0,-999,0,0.00
2013-1-12,5,-4,-12,-100,-100,-100,0,0,100,0.00,40.00,0,-999,0,0.00
2013-1-13,2,-7,-15,-100,-100,-100,0,0,100,0.00,40.00,0,-999,0,0.01
2013-1-14,6,-6,-16,-100,-100,-100,0,0,100,0.00,40.00,0,-999,0,0.01
2013-1-15,21,10,-4,-100,-100,-100,0,0,100,0.00,40.00,0,-999,0,0.00
2013-1-16,35,25,16,-100,-100,-100,0,0,100,0.00,40.00,0,-999,0,0.01
2013-1-17,33,24,14,-100,-100,-100,0,0,100,0.00,40.00,0,-999,0,0.00
2013-1-18,35,29,26,-100,-100,-100,0,0,100,0.00,40.00,0,-999,0,0.00
2013-1-19,40,29,24,-100,-100,-100,0,0,100,0.00,40.00,0,-999,0,0.00
2013-1-20,35,30,26,-100,-100,-100,0,0,100,0.00,40.00,0,-999,0,0.00
2013-1-21,35,29,25,-100,-100,-100,0,0,100,0.00,40.00,0,-999,0,0.00
2013-1-22,41,36,32,-100,-100,-100,0,0,100,0.00,40.00,0,-999,0,0.00
2013-1-23,45,39,31,-100,-100,-100,0,0,100,0.00,40.00,0,-999,0,0.00
2013-1-24,42,36,31,-100,-100,-100,0,0,100,0.00,40.00,0,-999,0,0.00
2013-1-25,42,32,24,-100,-100,-100,0,0,100,0.00,40.00,0,-999,0,0.00
2013-1-26,38,31,23,-100,-100,-100,0,0,100,0.00,40.00,0,-999,0,0.00
2013-1-27,36,30,24,-100,-100,-100,0,0,100,0.00,40.00,0,-999,0,0.01
2013-1-28,32,25,14,-100,-100,-100,0,0,100,0.00,40.00,0,-999,0,0.00
2013-1-29,14,7,1,-100,-100,-100,0,0,100,0.00,40.00,0,-999,0,0.00
2013-1-30,17,10,-1,-100,-100,-100,0,0,100,0.00,40.00,0,-999,0,0.01
2013-1-31,25,22,17,-100,-100,-100,0,0,100,0.00,40.00,0,-999,0,0.01
2013-2-1,25,22,19,-100,-100,-100,0,0,100,0.00,40.00,0,-999,0,0.00
2013-2-2,35,29,23,-100,-100,-100,0,0,100,0.00,40.00,0,-999,0,0.01
2013-2-3,37,30,19,-100,-100,-100,0,0,100,0.00,40.00,0,-999,0,0.00
2013-2-4,34,28,21,-100,-100,-100,0,0,100,0.00,40.00,0,-999,0,0.00
2013-2-5,41,32,23,-100,-100,-100,0,0,100,0.00,40.00,0,-999,0,0.00
2013-2-6,34,28,18,-100,-100,-100,0,0,100,0.00,40.00,0,-999,0,0.00
2013-2-7,34,21,12,-100,-100,-100,0,0,100,0.00,40.00,0,-999,0,0.00
2013-2-8,35,26,16,-100,-100,-100,0,0,100,0.00,40.00,0,-999,0,0.01
2013-2-9,26,20,10,-100,-100,-100,0,0,100,0.00,40.00,0,-999,0,0.00
2013-2-10,15,10,7,-100,-100,-100,0,0,100,0.00,40.00,0,-999,0,0.00
2013-2-11,13,6,-3,-100,-100,-100,0,0,100,0.00,40.00,0,-999,0,0.01
2013-2-12,23,11,2,-100,-100,-100,0,0,100,0.00,40.00,0,-999,0,0.00
2013-2-13,26,20,14,-100,-100,-100,0,0,100,0.00,40.00,0,-999,0,0.01
2013-2-14,24,17,13,-100,-100,-100,0,0,100,0.00,40.00,0,-999,0,0.00
2013-2-15,21,14,10,-100,-100,-100,0,0,100,0.00,40.00,0,-999,0,0.01
2013-2-16,32,26,21,-100,-100,-100,0,0,100,0.00,40.00,0,-999,0,0.01
2013-2-17,37,30,23,-100,-100,-100,0,0,100,0.00,40.00,0,-999,0,0.00
2013-2-18,18,13,7,-100,-100,-100,0,0,100,0.00,40.00,0,-999,0,0.00
2013-2-19,34,23,12,-100,-100,-100,0,0,100,0.00,40.00,0,-999,0,0.01
2013-2-20,29,20,11,-100,-100,-100,0,0,100,0.00,40.00,0,-999,0,0.00
2013-2-21,21,14,10,-100,-100,-100,0,0,100,0.00,40.00,0,-999,0,0.01
2013-2-22,19,13,8,-100,-100,-100,0,0,100,0.00,40.00,0,-999,0,0.00
2013-2-23,33,19,9,-100,-100,-100,0,0,100,0.00,40.00,0,-999,0,0.01
2013-2-24,18,13,9,-100,-100,-100,0,0,100,0.00,40.00,0,-999,0,0.04
2013-2-25,26,16,3,-100,-100,-100,0,0,100,0.00,40.00,0,-999,0,0.01
2013-2-26,19,14,7,-100,-100,-100,0,0,100,0.00,40.00,0,-999,0,0.00
2013-2-27,20,9,1,-100,-100,-100,0,0,100,0.00,40.00,0,-999,0,0.00
2013-2-28,22,15,7,-100,-100,-100,0,0,100,0.00,40.00,0,-999,0,0.00
2013-3-1,29,22,15,-100,-100,-100,0,0,100,0.00,40.00,0,-999,0,0.01
2013-3-2,38,30,24,-100,-100,-100,0,0,100,0.00,40.00,0,-999,0,0.01
2013-3-3,41,34,28,-100,-100,-100,0,0,100,0.00,40.00,0,-999,0,0.00
2013-3-4,31,21,9,-100,-100,-100,0,0,100,0.00,40.00,0,-999,0,0.01
2013-3-5,40,28,5,-100,-100,-100,0,0,100,0.00,40.00,0,-999,0,0.01
2013-3-6,45,33,21,-100,-100,-100,0,0,100,0.00,40.00,0,-999,0,0.00
2013-3-7,46,36,27,-100,-100,-100,0,0,100,0.00,40.00,0,-999,0,0.00
2013-3-8,40,32,24,-100,-100,-100,0,0,100,0.00,40.00,0,-999,0,0.00
2013-3-9,26,21,11,-100,-100,-100,0,0,100,0.00,40.00,0,-999,0,0.04
2013-3-10,28,17,7,-100,-100,-100,0,0,100,0.00,40.00,0,-999,0,0.01
2013-3-11,34,25,21,-100,-100,-100,0,0,100,0.00,40.00,0,-999,0,0.00
2013-3-12,35,27,21,-100,-100,-100,0,0,100,0.00,40.00,0,-999,0,0.01
2013-3-13,41,33,28,-100,-100,-100,0,0,100,0.00,40.00,0,-999,0,0.01
2013-3-14,47,39,29,-100,-100,-100,0,0,100,0.00,40.00,0,-999,0,0.01
2013-3-15,49,41,36,-100,-100,-100,0,0,100,0.00,40.00,0,-999,0,0.01
2013-3-16,40,32,25,-100,-100,-100,0,0,100,0.00,40.00,0,-999,0,0.00
2013-3-17,34,26,17,-100,-100,-100,0,0,100,0.00,40.00,0,-999,0,0.01
2013-3-18,23,18,12,-100,-100,-100,0,0,100,0.00,40.00,0,-999,0,0.01
2013-3-19,31,24,13,-100,-100,-100,0,0,100,0.00,40.00,0,-999,0,0.01
2013-3-20,40,26,9,-100,-100,-100,0,0,100,0.00,40.00,0,-999,0,0.01
2013-3-21,37,27,16,-100,-100,-100,0,0,100,0.00,40.00,0,-999,0,0.01
2013-3-22,31,21,14,-100,-100,-100,0,0,100,0.00,40.00,0,-999,0,0.01
2013-3-23,13,6,1,-100,-100,-100,0,0,100,0.00,40.00,0,-999,0,0.02
2013-3-24,9,3,-5,-100,-100,-100,0,0,100,0.00,40.00,0,-999,0,0.01
2013-3-25,24,12,1,-100,-100,-100,0,0,100,0.00,40.00,0,-999,0,0.01
2013-3-26,40,25,13,-100,-100,-100,0,0,100,0.00,40.00,0,-999,0,0.01
2013-3-27,41,30,20,-100,-100,-100,0,0,100,0.00,40.00,0,-999,0,0.01
2013-3-28,42,34,26,-100,-100,-100,0,0,100,0.00,40.00,0,-999,0,0.00
2013-3-29,44,34,26,-100,-100,-100,0,0,100,0.00,40.00,0,-999,0,0.00
2013-3-30,44,33,26,-100,-100,-100,0,0,100,0.00,40.00,0,-999,0,0.00
2013-3-31,47,32,16,-100,-100,-100,0,0,100,0.00,40.00,0,-999,0,0.01
2013-4-1,41,30,21,-100,-100,-100,0,0,100,0.00,40.00,0,-999,0,0.00
2013-4-2,30,26,24,-100,-100,-100,0,0,100,0.00,40.00,0,-999,0,0.02
2013-4-3,38,30,19,-100,-100,-100,0,0,100,0.00,40.00,0,-999,0,0.01
2013-4-4,30,30,29,-100,-100,-100,0,0,100,0.00,40.00,0,-999,0,0.00
2013-4-5,38,36,30,-100,-100,-100,0,0,100,0.00,40.00,0,-999,0,0.00
2013-4-6,42,32,26,-100,-100,-100,0,0,100,0.00,40.00,0,-999,0,0.00
2013-4-7,34,31,28,-100,-100,-100,0,0,100,0.00,40.00,0,-999,0,0.00
2013-4-8,44,34,27,-100,-100,-100,0,0,100,0.00,40.00,0,-999,0,0.01
2013-4-9,21,8,-1,-100,-100,-100,0,0,100,0.00,40.00,0,-999,0,0.01
2013-4-10,25,10,-1,-100,-100,-100,0,0,100,0.00,40.00,0,-999,0,0.01
2013-4-11,36,28,22,-100,-100,-100,0,0,100,0.00,40.00,0,-999,0,0.00
2013-4-12,29,26,24,-100,-100,-100,0,0,100,0.00,40.00,0,-999,0,0.00
2013-4-13,44,33,28,-100,-100,-100,0,0,100,0.00,40.00,0,-999,0,0.00
2013-4-14,30,23,18,-100,-100,-100,0,0,100,0.00,40.00,0,-999,0,0.02
2013-4-15,23,19,16,-100,-100,-100,0,0,100,0.00,40.00,0,-999,0,0.02
2013-4-16,38,22,13,-100,-100,-100,0,0,100,0.00,40.00,0,-999,0,0.03
2013-4-17,20,14,2,-100,-100,-100,0,0,100,0.00,40.00,0,-999,0,0.02
2013-4-18,15,6,1,-100,-100,-100,0,0,100,0.00,40.00,0,-999,0,0.02
2013-4-19,33,21,14,-100,-100,-100,0,0,100,0.00,40.00,0,-999,0,0.01
2013-4-20,35,26,18,-100,-100,-100,0,0,100,0.00,40.00,0,-999,0,0.01
2013-4-21,42,31,24,-100,-100,-100,0,0,100,0.00,40.00,0,-999,0,0.01
2013-4-22,40,24,9,-100,-100,-100,0,0,100,0.00,40.00,0,-999,0,0.00
2013-4-23,24,13,6,-100,-100,-100,0,0,100,0.00,40.00,0,-999,0,0.02
2013-4-24,33,29,20,-100,-100,-100,0,0,100,0.00,40.00,0,-999,0,0.00
2013-4-25,48,34,21,-100,-100,-100,0,0,100,0.00,40.00,0,-999,0,0.01
2013-4-26,45,35,23,-100,-100,-100,0,0,100,0.00,40.00,0,-999,0,0.00
2013-4-27,43,34,28,-100,-100,-100,0,0,100,0.00,40.00,0,-999,0,0.00
2013-4-28,53,44,36,-100,-100,-100,0,0,100,0.00,40.00,0,-999,0,0.00
2013-4-29,54,46,36,-100,-100,-100,0,0,100,0.00,40.00,0,-999,0,0.00
2013-4-30,53,44,30,-100,-100,-100,0,0,100,0.00,40.00,0,-999,0,0.00
2013-5-1,28,18,10,-100,-100,-100,0,0,100,0.00,40.00,0,-999,0,0.03
2013-5-2,26,14,4,-100,-100,-100,0,0,100,0.00,40.00,0,-999,0,0.01
2013-5-3,39,28,21,-100,-100,-100,0,0,100,0.00,40.00,0,-999,0,0.01
2013-5-4,37,28,19,-100,-100,-100,0,0,100,0.00,40.00,0,-999,0,0.01
2013-5-5,40,31,21,-100,-100,-100,0,0,100,0.00,40.00,0,-999,0,0.01
2013-5-6,44,35,29,-100,-100,-100,0,0,100,0.00,40.00,0,-999,0,0.00
2013-5-7,50,38,29,-100,-100,-100,0,0,100,0.00,40.00,0,-999,0,0.00
2013-5-8,36,32,27,-100,-100,-100,0,0,100,0.00,40.00,0,-999,0,0.04
2013-5-9,36,31,24,-100,-100,-100,0,0,100,0.00,40.00,0,-999,0,0.06
2013-5-10,40,30,22,-100,-100,-100,0,0,100,0.00,40.00,0,-999,0,0.01
2013-5-11,47,37,27,-100,-100,-100,0,0,100,0.00,40.00,0,-999,0,0.01
2013-5-12,54,45,38,-100,-100,-100,0,0,100,0.00,40.00,0,-999,0,0.00
2013-5-13,61,50,45,-100,-100,-100,0,0,100,0.00,40.00,0,-999,0,0.00
2013-5-14,59,50,39,-100,-100,-100,0,0,100,0.00,40.00,0,-999,0,0.00
2013-5-15,55,42,35,-100,-100,-100,0,0,100,0.00,40.00,0,-999,0,0.00
2013-5-16,57,47,35,-100,-100,-100,0,0,100,0.00,40.00,0,-999,0,0.00
2013-5-17,60,47,35,-100,-100,-100,0,0,100,0.00,40.00,0,-999,0,0.00
2013-5-18,49,39,32,-100,-100,-100,0,0,100,0.00,40.00,0,-999,0,0.00
2013-5-19,44,36,31,-100,-100,-100,0,0,100,0.00,40.00,0,-999,0,0.00
2013-5-20,42,37,31,-100,-100,-100,0,0,100,0.00,40.00,0,-999,0,0.00
2013-5-21,47,38,30,-100,-100,-100,0,0,100,0.00,40.00,0,-999,0,0.00
2013-5-22,54,42,31,-100,-100,-100,0,0,100,0.00,40.00,0,-999,0,0.00
2013-5-23,54,43,36,-100,-100,-100,0,0,100,0.00,40.00,0,-999,0,0.00
2013-5-24,60,48,35,-100,-100,-100,0,0,100,0.00,40.00,0,-999,0,0.00
2013-5-25,61,48,33,-100,-100,-100,0,0,100,0.00,40.00,0,-999,0,0.00
2013-5-26,62,50,41,-100,-100,-100,0,0,100,0.00,40.00,0,-999,0,0.00
2013-5-27,58,48,37,-100,-100,-100,0,0,100,0.00,40.00,0,-999,0,0.00
2013-5-28,56,46,33,-100,-100,-100,0,0,100,0.00,40.00,0,-999,0,0.00
2013-5-29,45,39,35,-100,-100,-100,0,0,100,0.00,40.00,0,-999,0,0.00
2013-5-30,43,36,32,-100,-100,-100,0,0,100,0.00,40.00,0,-999,0,0.00
2013-5-31,45,38,32,-100,-100,-100,0,0,100,0.00,40.00,0,-999,0,0.00
2013-6-1,48,40,32,-100,-100,-100,0,0,100,0.00,40.00,0,-999,0,0.00
2013-6-2,63,50,30,-100,-100,-100,0,0,100,0.00,40.00,0,-999,0,0.00
2013-6-3,63,54,46,-100,-100,-100,0,0,100,0.00,40.00,0,-999,0,0.01
2013-6-4,61,48,34,-100,-100,-100,0,0,100,0.00,40.00,0,-999,0,0.00
2013-6-5,49,41,35,-100,-100,-100,0,0,100,0.00,40.00,0,-999,0,0.00
2013-6-6,56,46,36,-100,-100,-100,0,0,100,0.00,40.00,0,-999,0,0.00
2013-6-7,58,46,35,-100,-100,-100,0,0,100,0.00,40.00,0,-999,0,0.00
2013-6-8,58,52,43,-100,-100,-100,0,0,100,0.00,40.00,0,-999,0,0.01
2013-6-9,66,55,39,-100,-100,-100,0,0,100,0.00,40.00,0,-999,0,0.00
2013-6-10,72,61,51,-100,-100,-100,0,0,100,0.00,40.00,0,-999,0,0.00
2013-6-11,72,61,47,-100,-100,-100,0,0,100,0.00,40.00,0,-999,0,0.00
2013-6-12,67,56,40,-100,-100,-100,0,0,100,0.00,40.00,0,-999,0,0.00
2013-6-13,72,57,43,-100,-100,-100,0,0,100,0.00,40.00,0,-999,0,0.00
2013-6-14,67,55,44,-100,-100,-100,0,0,100,0.00,40.00,0,-999,0,0.00
2013-6-15,66,51,37,-100,-100,-100,0,0,100,0.00,40.00,0,-999,0,0.00
2013-6-16,60,50,40,-100,-100,-100,0,0,100,0.00,40.00,0,-999,0,0.00
2013-6-17,59,50,40,-100,-100,-100,0,0,100,0.00,40.00,0,-999,0,0.00
2013-6-18,64,51,38,-100,-100,-100,0,0,100,0.00,40.00,0,-999,0,0.00
2013-6-19,69,55,36,-100,-100,-100,0,0,100,0.00,40.00,0,-999,0,0.00
2013-6-20,63,53,43,-100,-100,-100,0,0,100,0.00,40.00,0,-999,0,0.00
2013-6-22,65,58,49,-100,-100,-100,0,0,100,0.00,40.00,0,-999,0,0.00
2013-6-23,60,51,38,-100,-100,-100,0,0,100,0.00,40.00,0,-999,0,0.00
2013-6-24,65,54,38,-100,-100,-100,0,0,100,0.00,40.00,0,-999,0,0.00
2013-6-25,66,56,47,-100,-100,-100,0,0,100,0.00,40.00,0,-999,0,0.01
2013-6-26,72,55,44,-100,-100,-100,0,0,100,0.00,40.00,0,-999,0,0.00
2013-6-27,72,60,50,-100,-100,-100,0,0,100,0.00,40.00,0,-999,0,0.00
2013-6-28,72,60,49,-100,-100,-100,0,0,100,0.00,40.00,0,-999,0,0.00
2013-6-29,67,56,47,-100,-100,-100,0,0,100,0.00,40.00,0,-999,0,0.00
2013-6-30,62,50,43,-100,-100,-100,0,0,100,0.00,40.00,0,-999,0,0.00
2013-7-1,57,47,38,-100,-100,-100,0,0,100,0.00,40.00,0,-999,0,0.01
2013-7-2,57,46,38,-100,-100,-100,0,0,100,0.00,40.00,0,-999,0,0.01
2013-7-3,63,49,38,-100,-100,-100,0,0,100,0.00,40.00,0,-999,0,0.01
2013-7-4,64,52,41,-100,-100,-100,0,0,100,0.00,40.00,0,-999,0,0.01
2013-7-5,63,55,47,-100,-100,-100,0,0,100,0.00,40.00,0,-999,0,0.01
2013-7-6,63,53,48,-100,-100,-100,0,0,100,0.00,40.00,0,-999,0,0.01
2013-7-7,62,53,45,-100,-100,-100,0,0,100,0.00,40.00,0,-999,0,0.01
2013-7-8,67,53,43,-100,-100,-100,0,0,100,0.00,40.00,0,-999,0,0.01
2013-7-9,67,56,47,-100,-100,-100,0,0,100,0.00,40.00,0,-999,0,0.00
2013-7-10,68,54,44,-100,-100,-100,0,0,100,0.00,40.00,0,-999,0,0.01
2013-7-11,70,55,44,-100,-100,-100,0,0,100,0.00,40.00,0,-999,0,0.02
2013-7-12,63,52,45,-100,-100,-100,0,0,100,0.00,40.00,0,-999,0,0.02
2013-7-13,63,54,47,-100,-100,-100,0,0,100,0.00,40.00,0,-999,0,0.02
2013-7-14,58,50,44,-100,-100,-100,0,0,100,0.00,40.00,0,-999,0,0.02
2013-7-15,56,49,45,-100,-100,-100,0,0,100,0.00,40.00,0,-999,0,0.01
2013-7-16,60,50,36,-100,-100,-100,0,0,100,0.00,40.00,0,-999,0,0.00
2013-7-17,67,54,39,-100,-100,-100,0,0,100,0.00,40.00,0,-999,0,0.00
2013-7-18,67,55,48,-100,-100,-100,0,0,100,0.00,40.00,0,-999,0,0.01
2013-7-19,61,52,45,-100,-100,-100,0,0,100,0.00,40.00,0,-999,0,0.01
2013-7-20,69,54,42,-100,-100,-100,0,0,100,0.00,40.00,0,-999,0,0.00
2013-7-21,70,60,49,-100,-100,-100,0,0,100,0.00,40.00,0,-999,0,0.00
2013-7-22,70,61,51,-100,-100,-100,0,0,100,0.00,40.00,0,-999,0,0.00
2013-7-23,72,60,51,-100,-100,-100,0,0,100,0.00,40.00,0,-999,0,0.00
2013-7-24,67,52,47,-100,-100,-100,0,0,100,0.00,40.00,0,-999,0,0.01
2013-7-25,55,48,42,-100,-100,-100,0,0,100,0.00,40.00,0,-999,0,1.11
2013-7-26,61,51,38,-100,-100,-100,0,0,100,0.00,40.00,0,-999,0,0.01
2013-7-27,63,54,45,-100,-100,-100,0,0,100,0.00,40.00,0,-999,0,0.02
2013-7-28,54,48,44,-100,-100,-100,0,0,100,0.00,40.00,0,-999,0,0.02
2013-7-29,57,48,43,-100,-100,-100,0,0,100,0.00,40.00,0,-999,0,0.01
2013-7-30,62,52,40,-100,-100,-100,0,0,100,0.00,40.00,0,-999,0,0.01
2013-7-31,65,55,45,-100,-100,-100,0,0,100,0.00,40.00,0,-999,0,0.00
2013-8-1,64,52,44,-100,-100,-100,0,0,100,0.00,40.00,0,-999,0,0.01
2013-8-2,66,58,44,-100,-100,-100,0,0,100,0.00,40.00,0,-999,0,0.01
2013-8-3,65,54,45,-100,-100,-100,0,0,100,0.00,40.00,0,-999,0,0.01
2013-8-4,66,52,43,-100,-100,-100,0,0,100,0.00,40.00,0,-999,0,0.01
2013-8-5,61,50,45,-100,-100,-100,0,0,100,0.00,40.00,0,-999,0,0.01
2013-8-6,62,53,44,-100,-100,-100,0,0,100,0.00,40.00,0,-999,0,0.01
2013-8-7,54,46,41,-100,-100,-100,0,0,100,0.00,40.00,0,-999,0,0.01
2013-8-8,57,45,39,-100,-100,-100,0,0,100,0.00,40.00,0,-999,0,0.01
2013-8-9,53,43,36,-100,-100,-100,0,0,100,0.00,40.00,0,-999,0,0.01
2013-8-10,63,50,38,-100,-100,-100,0,0,100,0.00,40.00,0,-999,0,0.01
2013-8-11,58,46,41,-100,-100,-100,0,0,100,0.00,40.00,0,-999,0,0.01
2013-8-12,57,47,38,-100,-100,-100,0,0,100,0.00,40.00,0,-999,0,0.01
2013-8-13,49,45,40,-100,-100,-100,0,0,100,0.00,40.00,0,-999,0,0.02
2013-8-14,61,47,37,-100,-100,-100,0,0,100,0.00,40.00,0,-999,0,0.01
2013-8-15,63,52,41,-100,-100,-100,0,0,100,0.00,40.00,0,-999,0,0.00
2013-8-16,65,56,41,-100,-100,-100,0,0,100,0.00,40.00,0,-999,0,0.00
2013-8-17,67,58,45,-100,-100,-100,0,0,100,0.00,40.00,0,-999,0,0.00
2013-8-18,66,54,46,-100,-100,-100,0,0,100,0.00,40.00,0,-999,0,0.00
2013-8-19,65,56,45,-100,-100,-100,0,0,100,0.00,40.00,0,-999,0,0.00
2013-8-20,71,58,46,-100,-100,-100,0,0,100,0.00,40.00,0,-999,0,0.00
2013-8-21,64,54,47,-100,-100,-100,0,0,100,0.00,40.00,0,-999,0,0.00
2013-8-22,61,51,45,-100,-100,-100,0,0,100,0.00,40.00,0,-999,0,0.02
2013-8-23,64,52,44,-100,-100,-100,0,0,100,0.00,40.00,0,-999,0,0.03
2013-8-24,56,50,42,-100,-100,-100,0,0,100,0.00,40.00,0,-999,0,0.01
2013-8-25,58,50,43,-100,-100,-100,0,0,100,0.00,40.00,0,-999,0,0.01
2013-8-26,62,52,47,-100,-100,-100,0,0,100,0.00,40.00,0,-999,0,0.05
2013-8-27,59,51,45,-100,-100,-100,0,0,100,0.00,40.00,0,-999,0,0.05
2013-8-28,66,59,50,-100,-100,-100,0,0,100,0.00,40.00,0,-999,0,0.00
2013-8-29,65,52,44,-100,-100,-100,0,0,100,0.00,40.00,0,-999,0,0.01
2013-8-30,61,52,46,-100,-100,-100,0,0,100,0.00,40.00,0,-999,0,0.04
2013-8-31,61,51,46,-100,-100,-100,0,0,100,0.00,40.00,0,-999,0,0.02
2013-9-1,56,49,43,-100,-100,-100,0,0,100,0.00,40.00,0,-999,0,0.01
2013-9-2,64,52,43,-100,-100,-100,0,0,100,0.00,40.00,0,-999,0,0.01
2013-9-3,64,54,47,-100,-100,-100,0,0,100,0.00,40.00,0,-999,0,0.01
2013-9-4,64,54,46,-100,-100,-100,0,0,100,0.00,40.00,0,-999,0,0.01
2013-9-5,68,57,46,-100,-100,-100,0,0,100,0.00,40.00,0,-999,0,0.00
2013-9-6,63,57,49,-100,-100,-100,0,0,100,0.00,40.00,0,-999,0,0.00
2013-9-7,67,56,45,-100,-100,-100,0,0,100,0.00,40.00,0,-999,0,0.00
2013-9-8,62,53,45,-100,-100,-100,0,0,100,0.00,40.00,0,-999,0,0.00
2013-9-9,56,48,42,-100,-100,-100,0,0,100,0.00,40.00,0,-999,0,0.06
2013-9-10,47,46,44,-100,-100,-100,0,0,100,0.00,40.00,0,-999,0,0.09
2013-9-11,49,47,46,-100,-100,-100,0,0,100,0.00,40.00,0,-999,0,0.06
2013-9-12,48,46,45,-100,-100,-100,0,0,100,0.00,40.00,0,-999,0,0.03
2013-9-13,52,46,43,-100,-100,-100,0,0,100,0.00,40.00,0,-999,0,0.07
2013-9-14,51,44,40,-100,-100,-100,0,0,100,0.00,40.00,0,-999,0,0.01
2013-9-15,44,42,40,-100,-100,-100,0,0,100,0.00,40.00,0,-999,0,0.04
2013-9-16,53,44,37,-100,-100,-100,0,0,100,0.00,40.00,0,-999,0,0.01
2013-9-17,57,46,36,-100,-100,-100,0,0,100,0.00,40.00,0,-999,0,0.00
2013-9-18,48,44,40,-100,-100,-100,0,0,100,0.00,40.00,0,-999,0,0.00
2013-9-19,46,41,33,-100,-100,-100,0,0,100,0.00,40.00,0,-999,0,0.00
2013-9-20,56,43,30,-100,-100,-100,0,0,100,0.00,40.00,0,-999,0,0.00
2013-9-21,58,47,37,-100,-100,-100,0,0,100,0.00,40.00,0,-999,0,0.00
2013-9-22,54,45,36,-100,-100,-100,0,0,100,0.00,40.00,0,-999,0,0.00
2013-9-23,40,36,32,-100,-100,-100,0,0,100,0.00,40.00,0,-999,0,0.00
2013-9-24,57,47,34,-100,-100,-100,0,0,100,0.00,40.00,0,-999,0,0.00
2013-9-25,60,52,47,-100,-100,-100,0,0,100,0.00,40.00,0,-999,0,0.00
2013-9-26,58,49,43,-100,-100,-100,0,0,100,0.00,40.00,0,-999,0,0.00
2013-9-27,45,38,26,-100,-100,-100,0,0,100,0.00,40.00,0,-999,0,0.00
2013-9-28,49,35,25,-100,-100,-100,0,0,100,0.00,40.00,0,-999,0,0.01
2013-9-30,62,51,43,-100,-100,-100,0,0,100,0.00,40.00,0,-999,0,0.00
2013-10-1,49,42,39,-100,-100,-100,0,0,100,0.00,40.00,0,-999,0,0.00
2013-10-2,54,45,33,-100,-100,-100,0,0,100,0.00,40.00,0,-999,0,0.00
2013-10-3,55,45,35,-100,-100,-100,0,0,100,0.00,40.00,0,-999,0,0.00
2013-10-4,36,27,24,-100,-100,-100,0,0,100,0.00,40.00,0,-999,0,0.02
2013-10-5,37,29,19,-100,-100,-100,0,0,100,0.00,40.00,0,-999,0,0.01
2013-10-6,50,40,33,-100,-100,-100,0,0,100,0.00,40.00,0,-999,0,0.00
2013-10-7,59,45,36,-100,-100,-100,0,0,100,0.00,40.00,0,-999,0,0.00
2013-10-8,55,47,35,-100,-100,-100,0,0,100,0.00,40.00,0,-999,0,0.00
2013-10-9,47,39,32,-100,-100,-100,0,0,100,0.00,40.00,0,-999,0,0.00
2013-10-10,43,38,31,-100,-100,-100,0,0,100,0.00,40.00,0,-999,0,0.00
2013-10-11,37,34,31,-100,-100,-100,0,0,100,0.00,40.00,0,-999,0,0.00
2013-10-12,40,31,23,-100,-100,-100,0,0,100,0.00,40.00,0,-999,0,0.00
2013-10-13,49,39,27,-100,-100,-100,0,0,100,0.00,40.00,0,-999,0,0.00
2013-10-21,33,29,22,-100,-100,-100,0,0,100,0.00,40.00,0,-999,0,0.00
2013-10-22,46,40,35,-100,-100,-100,0,0,100,0.00,40.00,0,-999,0,0.00
2013-10-23,38,37,35,-100,-100,-100,0,0,100,0.00,40.00,0,-999,0,0.00
2013-10-24,48,38,28,-100,-100,-100,0,0,100,0.00,40.00,0,-999,0,0.00
2013-10-25,40,38,36,-100,-100,-100,0,0,100,0.00,40.00,0,-999,0,0.00
2013-10-26,36,32,27,-100,-100,-100,0,0,100,0.00,40.00,0,-999,0,0.00
2013-10-27,43,38,32,-100,-100,-100,0,0,100,0.00,40.00,0,-999,0,0.00
2013-11-2,48,44,33,-100,-100,-100,0,0,100,0.00,40.00,0,-999,0,0.00
2013-11-3,43,36,28,-100,-100,-100,0,0,100,0.00,40.00,0,-999,0,0.00
2013-11-4,35,26,18,-100,-100,-100,0,0,100,0.00,40.00,0,-999,0,0.00
2013-11-5,24,18,14,-100,-100,-100,0,0,100,0.00,40.00,0,-999,0,0.00
2013-11-6,22,20,17,-100,-100,-100,0,0,100,0.00,40.00,0,-999,0,0.00
2013-11-7,27,26,25,-100,-100,-100,0,0,100,0.00,40.00,0,-999,0,0.00
2013-11-8,44,36,31,-100,-100,-100,0,0,100,0.00,40.00,0,-999,0,0.00
2013-11-12,43,34,24,-100,-100,-100,0,0,100,0.00,40.00,0,-999,0,0.00
2013-11-13,42,37,29,-100,-100,-100,0,0,100,0.00,40.00,0,-999,0,0.00
2013-11-14,37,32,30,-100,-100,-100,0,0,100,0.00,40.00,0,-999,0,0.00
2013-11-15,36,34,32,-100,-100,-100,0,0,100,0.00,40.00,0,-999,0,0.00
2013-11-16,29,26,21,-100,-100,-100,0,0,100,0.00,40.00,0,-999,0,0.00
2013-11-17,29,24,19,-100,-100,-100,0,0,100,0.00,40.00,0,-999,0,0.00
2013-11-18,45,32,25,-100,-100,-100,0,0,100,0.00,40.00,0,-999,0,0.02
2013-11-19,40,33,29,-100,-100,-100,0,0,100,0.00,40.00,0,-999,0,0.01
2013-11-20,29,28,27,-100,-100,-100,0,0,100,0.00,40.00,0,-999,0,0.00
2013-11-21,27,24,21,-100,-100,-100,0,0,100,0.00,40.00,0,-999,0,0.00
2013-11-22,20,14,10,-100,-100,-100,0,0,100,0.00,40.00,0,-999,0,0.00
2013-11-23,27,20,16,-100,-100,-100,0,0,100,0.00,40.00,0,-999,0,0.02
2013-11-24,33,28,24,-100,-100,-100,0,0,100,0.00,40.00,0,-999,0,0.02
2013-11-25,23,21,19,-100,-100,-100,0,0,100,0.00,40.00,0,-999,0,0.01
2013-11-26,28,24,21,-100,-100,-100,0,0,100,0.00,40.00,0,-999,0,0.00
2013-11-27,39,29,22,-100,-100,-100,0,0,100,0.00,40.00,0,-999,0,0.00
2013-11-28,40,30,21,-100,-100,-100,0,0,100,0.00,40.00,0,-999,0,0.00
2013-11-29,36,30,21,-100,-100,-100,0,0,100,0.00,40.00,0,-999,0,0.00
2013-11-30,35,29,25,-100,-100,-100,0,0,100,0.00,40.00,0,-999,0,0.00
2013-12-1,34,30,27,-100,-100,-100,0,0,100,0.00,40.00,0,-999,0,0.00
2013-12-2,33,31,30,-100,-100,-100,0,0,100,0.00,40.00,0,-999,0,0.00
2013-12-3,27,21,10,-100,-100,-100,0,0,100,0.00,40.00,0,-999,0,0.00
2013-12-4,10,2,-7,-100,-100,-100,0,0,100,0.00,40.00,0,-999,0,0.00
2013-12-5,11,-2,-13,-100,-100,-100,0,0,100,0.00,40.00,0,-999,0,0.02
2013-12-6,4,-4,-12,-100,-100,-100,0,0,100,0.00,40.00,0,-999,0,0.00
2013-12-7,11,7,3,-100,-100,-100,0,0,100,0.00,40.00,0,-999,0,0.00
2013-12-8,5,2,-4,-100,-100,-100,0,0,100,0.00,40.00,0,-999,0,0.01
2013-12-9,12,2,-6,-100,-100,-100,0,0,100,0.00,40.00,0,-999,0,0.01
2013-12-10,24,20,14,-100,-100,-100,0,0,100,0.00,40.00,0,-999,0,0.01
2013-12-11,29,23,17,-100,-100,-100,0,0,100,0.00,40.00,0,-999,0,0.01
2013-12-12,34,31,28,-100,-100,-100,0,0,100,0.00,40.00,0,-999,0,0.01
2013-12-13,31,25,18,-100,-100,-100,0,0,100,0.00,40.00,0,-999,0,0.00
2013-12-14,23,20,15,-100,-100,-100,0,0,100,0.00,40.00,0,-999,0,0.00
2013-12-15,31,28,26,-100,-100,-100,0,0,100,0.00,40.00,0,-999,0,0.00
2013-12-16,36,34,31,-100,-100,-100,0,0,100,0.00,40.00,0,-999,0,0.00
2013-12-17,36,35,34,-100,-100,-100,0,0,100,0.00,40.00,0,-999,0,0.00
2013-12-18,43,38,35,-100,-100,-100,0,0,100,0.00,40.00,0,-999,0,0.00
2013-12-19,36,32,23,-100,-100,-100,0,0,100,0.00,40.00,0,-999,0,0.00
2013-12-20,26,24,23,-100,-100,-100,0,0,100,0.00,40.00,0,-999,0,0.00
2013-12-21,24,19,11,-100,-100,-100,0,0,100,0.00,40.00,0,-999,0,0.00
2013-12-22,17,14,9,-100,-100,-100,0,0,100,0.00,40.00,0,-999,0,0.00
2013-12-23,27,21,14,-100,-100,-100,0,0,100,0.00,40.00,0,-999,0,0.00
2013-12-24,29,22,11,-100,-100,-100,0,0,100,0.00,40.00,0,-999,0,0.00
2013-12-25,28,22,15,-100,-100,-100,0,0,100,0.00,40.00,0,-999,0,0.00
2013-12-26,32,28,25,-100,-100,-100,0,0,100,0.00,40.00,0,-999,0,0.01
2013-12-27,39,34,28,-100,-100,-100,0,0,100,0.00,40.00,0,-999,0,0.00
2013-12-28,36,33,31,-100,-100,-100,0,0,100,0.00,40.00,0,-999,0,0.00
2013-12-29,20,13,10,-100,-100,-100,0,0,100,0.00,40.00,0,-999,0,0.00
2013-12-30,24,21,19,-100,-100,-100,0,0,100,0.00,40.00,0,-999,0,0.00
2013-12-31,29,27,26,-100,-100,-100,0,0,100,0.00,40.00,0,-999,0,0.03
2014-1-1,27,19,15,-100,-100,-100,0,0,100,0.00,40.00,0,-999,0,0.01
2014-1-2,32,26,18,-100,-100,-100,0,0,100,0.00,40.00,0,-999,0,0.02